Year,Month,Day,Hour,Minute,Value (Times are PST for temperature in C)
2015,06,22,00,00,15.00
2015,06,22,00,01,15.00
2015,06,22,00,02,15.00
2015,06,22,00,03,15.10
2015,06,22,00,04,15.20
2015,06,22,00,05,15.30
2015,06,22,00,06,15.30
2015,06,22,00,07,15.30
2015,06,22,00,08,15.30
2015,06,22,00,09,15.40
2015,06,22,00,10,15.40
2015,06,22,00,11,15.40
2015,06,22,00,12,15.40
2015,06,22,00,13,15.30
2015,06,22,00,14,15.30
2015,06,22,00,15,15.30
2015,06,22,00,16,15.30
2015,06,22,00,17,15.30
2015,06,22,00,18,15.20
2015,06,22,00,19,15.20
2015,06,22,00,20,15.20
2015,06,22,00,21,15.10
2015,06,22,00,22,15.10
2015,06,22,00,23,15.10
2015,06,22,00,24,15.10
2015,06,22,00,25,15.00
2015,06,22,00,26,15.00
2015,06,22,00,27,15.00
2015,06,22,00,28,15.00
2015,06,22,00,29,15.00
2015,06,22,00,30,15.00
2015,06,22,00,31,15.00
2015,06,22,00,32,15.00
2015,06,22,00,33,15.00
2015,06,22,00,34,14.90
2015,06,22,00,35,14.90
2015,06,22,00,36,15.00
2015,06,22,00,37,15.00
2015,06,22,00,38,15.00
2015,06,22,00,39,15.00
2015,06,22,00,40,15.00
2015,06,22,00,41,15.00
2015,06,22,00,42,15.00
2015,06,22,00,43,15.00
2015,06,22,00,44,15.00
2015,06,22,00,45,15.00
2015,06,22,00,46,15.00
2015,06,22,00,47,15.00
2015,06,22,00,48,15.00
2015,06,22,00,49,15.00
2015,06,22,00,50,15.00
2015,06,22,00,51,15.00
2015,06,22,00,52,15.00
2015,06,22,00,53,15.00
2015,06,22,00,54,15.00
2015,06,22,00,55,15.00
2015,06,22,00,56,15.00
2015,06,22,00,57,15.00
2015,06,22,00,58,15.00
2015,06,22,00,59,15.00
2015,06,22,01,00,15.00
2015,06,22,01,01,15.00
2015,06,22,01,02,15.00
2015,06,22,01,03,15.00
2015,06,22,01,04,15.00
2015,06,22,01,05,15.00
2015,06,22,01,06,15.00
2015,06,22,01,07,15.00
2015,06,22,01,08,15.00
2015,06,22,01,09,15.00
2015,06,22,01,10,15.00
2015,06,22,01,11,14.90
2015,06,22,01,12,14.90
2015,06,22,01,13,14.80
2015,06,22,01,14,14.80
2015,06,22,01,15,14.70
2015,06,22,01,16,14.70
2015,06,22,01,17,14.70
2015,06,22,01,18,14.70
2015,06,22,01,19,14.70
2015,06,22,01,20,14.60
2015,06,22,01,21,14.60
2015,06,22,01,22,14.60
2015,06,22,01,23,14.60
2015,06,22,01,24,14.60
2015,06,22,01,25,14.60
2015,06,22,01,26,14.60
2015,06,22,01,27,14.60
2015,06,22,01,28,14.50
2015,06,22,01,29,14.50
2015,06,22,01,30,14.40
2015,06,22,01,31,14.40
2015,06,22,01,32,14.40
2015,06,22,01,33,14.30
2015,06,22,01,34,14.30
2015,06,22,01,35,14.20
2015,06,22,01,36,14.20
2015,06,22,01,37,14.20
2015,06,22,01,38,14.20
2015,06,22,01,39,14.20
2015,06,22,01,40,14.20
2015,06,22,01,41,14.20
2015,06,22,01,42,14.20
2015,06,22,01,43,14.20
2015,06,22,01,44,14.20
2015,06,22,01,45,14.20
2015,06,22,01,46,14.20
2015,06,22,01,47,14.20
2015,06,22,01,48,14.20
2015,06,22,01,49,14.30
2015,06,22,01,50,14.30
2015,06,22,01,51,14.30
2015,06,22,01,52,14.30
2015,06,22,01,53,14.30
2015,06,22,01,54,14.20
2015,06,22,01,55,14.20
2015,06,22,01,56,14.20
2015,06,22,01,57,14.20
2015,06,22,01,58,14.20
2015,06,22,01,59,14.20
2015,06,22,02,00,14.20
2015,06,22,02,01,14.20
2015,06,22,02,02,14.20
2015,06,22,02,03,14.20
2015,06,22,02,04,14.20
2015,06,22,02,05,14.20
2015,06,22,02,06,14.20
2015,06,22,02,07,14.20
2015,06,22,02,08,14.20
2015,06,22,02,09,14.20
2015,06,22,02,10,14.20
2015,06,22,02,11,14.20
2015,06,22,02,12,14.20
2015,06,22,02,13,14.20
2015,06,22,02,14,14.20
2015,06,22,02,15,14.20
2015,06,22,02,16,14.20
2015,06,22,02,17,14.20
2015,06,22,02,18,14.20
2015,06,22,02,19,14.10
2015,06,22,02,20,14.10
2015,06,22,02,21,14.10
2015,06,22,02,22,14.10
2015,06,22,02,23,14.10
2015,06,22,02,24,14.00
2015,06,22,02,25,14.00
2015,06,22,02,26,13.90
2015,06,22,02,27,13.90
2015,06,22,02,28,13.90
2015,06,22,02,29,13.80
2015,06,22,02,30,13.80
2015,06,22,02,31,13.70
2015,06,22,02,32,13.70
2015,06,22,02,33,13.70
2015,06,22,02,34,13.70
2015,06,22,02,35,13.60
2015,06,22,02,36,13.60
2015,06,22,02,37,13.60
2015,06,22,02,38,13.50
2015,06,22,02,39,13.50
2015,06,22,02,40,13.50
2015,06,22,02,41,13.50
2015,06,22,02,42,13.50
2015,06,22,02,43,13.50
2015,06,22,02,44,13.50
2015,06,22,02,45,13.50
2015,06,22,02,46,13.40
2015,06,22,02,47,13.50
2015,06,22,02,48,13.40
2015,06,22,02,49,13.40
2015,06,22,02,50,13.40
2015,06,22,02,51,13.40
2015,06,22,02,52,13.40
2015,06,22,02,53,13.40
2015,06,22,02,54,13.40
2015,06,22,02,55,13.40
2015,06,22,02,56,13.30
2015,06,22,02,57,13.30
2015,06,22,02,58,13.30
2015,06,22,02,59,13.30
2015,06,22,03,00,13.20
2015,06,22,03,01,13.20
2015,06,22,03,02,13.20
2015,06,22,03,03,13.20
2015,06,22,03,04,13.20
2015,06,22,03,05,13.20
2015,06,22,03,06,13.10
2015,06,22,03,07,13.10
2015,06,22,03,08,13.10
2015,06,22,03,09,13.10
2015,06,22,03,10,13.10
2015,06,22,03,11,13.10
2015,06,22,03,12,13.10
2015,06,22,03,13,13.10
2015,06,22,03,14,13.00
2015,06,22,03,15,13.00
2015,06,22,03,16,12.90
2015,06,22,03,17,12.90
2015,06,22,03,18,12.90
2015,06,22,03,19,12.90
2015,06,22,03,20,12.90
2015,06,22,03,21,12.90
2015,06,22,03,22,12.80
2015,06,22,03,23,12.80
2015,06,22,03,24,12.80
2015,06,22,03,25,12.80
2015,06,22,03,26,12.80
2015,06,22,03,27,12.80
2015,06,22,03,28,12.70
2015,06,22,03,29,12.70
2015,06,22,03,30,12.70
2015,06,22,03,31,12.70
2015,06,22,03,32,12.60
2015,06,22,03,33,12.60
2015,06,22,03,34,12.60
2015,06,22,03,35,12.60
2015,06,22,03,36,12.50
2015,06,22,03,37,12.50
2015,06,22,03,38,12.50
2015,06,22,03,39,12.50
2015,06,22,03,40,12.40
2015,06,22,03,41,12.40
2015,06,22,03,42,12.40
2015,06,22,03,43,12.30
2015,06,22,03,44,12.30
2015,06,22,03,45,12.30
2015,06,22,03,46,12.30
2015,06,22,03,47,12.30
2015,06,22,03,48,12.30
2015,06,22,03,49,12.30
2015,06,22,03,50,12.30
2015,06,22,03,51,12.30
2015,06,22,03,52,12.30
2015,06,22,03,53,12.30
2015,06,22,03,54,12.30
2015,06,22,03,55,12.20
2015,06,22,03,56,12.20
2015,06,22,03,57,12.20
2015,06,22,03,58,12.20
2015,06,22,03,59,12.20
2015,06,22,04,00,12.20
2015,06,22,04,01,12.20
2015,06,22,04,02,12.20
2015,06,22,04,03,12.10
2015,06,22,04,04,12.10
2015,06,22,04,05,12.10
2015,06,22,04,06,12.10
2015,06,22,04,07,12.10
2015,06,22,04,08,12.00
2015,06,22,04,09,12.00
2015,06,22,04,10,12.00
2015,06,22,04,11,12.00
2015,06,22,04,12,12.00
2015,06,22,04,13,12.00
2015,06,22,04,14,12.00
2015,06,22,04,15,12.00
2015,06,22,04,16,12.00
2015,06,22,04,17,12.00
2015,06,22,04,18,11.90
2015,06,22,04,19,11.90
2015,06,22,04,20,11.90
2015,06,22,04,21,11.90
2015,06,22,04,22,11.90
2015,06,22,04,23,11.90
2015,06,22,04,24,11.90
2015,06,22,04,25,11.90
2015,06,22,04,26,11.90
2015,06,22,04,27,11.90
2015,06,22,04,28,11.90
2015,06,22,04,29,11.90
2015,06,22,04,30,11.90
2015,06,22,04,31,11.90
2015,06,22,04,32,11.90
2015,06,22,04,33,11.80
2015,06,22,04,34,11.80
2015,06,22,04,35,11.80
2015,06,22,04,36,11.80
2015,06,22,04,37,11.80
2015,06,22,04,38,11.80
2015,06,22,04,39,11.80
2015,06,22,04,40,11.80
2015,06,22,04,41,11.80
2015,06,22,04,42,11.80
2015,06,22,04,43,11.80
2015,06,22,04,44,11.70
2015,06,22,04,45,11.70
2015,06,22,04,46,11.70
2015,06,22,04,47,11.70
2015,06,22,04,48,11.70
2015,06,22,04,49,11.70
2015,06,22,04,50,11.70
2015,06,22,04,51,11.70
2015,06,22,04,52,11.70
2015,06,22,04,53,11.70
2015,06,22,04,54,11.70
2015,06,22,04,55,11.60
2015,06,22,04,56,11.60
2015,06,22,04,57,11.60
2015,06,22,04,58,11.60
2015,06,22,04,59,11.60
2015,06,22,05,00,11.60
2015,06,22,05,01,11.60
2015,06,22,05,02,11.60
2015,06,22,05,03,11.50
2015,06,22,05,04,11.50
2015,06,22,05,05,11.50
2015,06,22,05,06,11.40
2015,06,22,05,07,11.40
2015,06,22,05,08,11.40
2015,06,22,05,09,11.40
2015,06,22,05,10,11.30
2015,06,22,05,11,11.30
2015,06,22,05,12,11.30
2015,06,22,05,13,11.30
2015,06,22,05,14,11.30
2015,06,22,05,15,11.30
2015,06,22,05,16,11.20
2015,06,22,05,17,11.20
2015,06,22,05,18,11.20
2015,06,22,05,19,11.20
2015,06,22,05,20,11.20
2015,06,22,05,21,11.10
2015,06,22,05,22,11.10
2015,06,22,05,23,11.10
2015,06,22,05,24,11.10
2015,06,22,05,25,11.10
2015,06,22,05,26,11.00
2015,06,22,05,27,11.00
2015,06,22,05,28,11.00
2015,06,22,05,29,11.00
2015,06,22,05,30,11.00
2015,06,22,05,31,11.00
2015,06,22,05,32,11.00
2015,06,22,05,33,11.00
2015,06,22,05,34,11.00
2015,06,22,05,35,11.00
2015,06,22,05,36,10.90
2015,06,22,05,37,10.90
2015,06,22,05,38,10.90
2015,06,22,05,39,11.00
2015,06,22,05,40,10.90
2015,06,22,05,41,10.90
2015,06,22,05,42,10.90
2015,06,22,05,43,10.90
2015,06,22,05,44,10.90
2015,06,22,05,45,10.90
2015,06,22,05,46,10.90
2015,06,22,05,47,10.90
2015,06,22,05,48,10.90
2015,06,22,05,49,10.90
2015,06,22,05,50,10.90
2015,06,22,05,51,10.90
2015,06,22,05,52,10.90
2015,06,22,05,53,10.90
2015,06,22,05,54,10.90
2015,06,22,05,55,10.90
2015,06,22,05,56,10.90
2015,06,22,05,57,10.90
2015,06,22,05,58,10.90
2015,06,22,05,59,10.90
2015,06,22,06,00,10.80
2015,06,22,06,01,10.80
2015,06,22,06,02,10.80
2015,06,22,06,03,10.80
2015,06,22,06,04,10.80
2015,06,22,06,05,10.80
2015,06,22,06,06,10.80
2015,06,22,06,07,10.80
2015,06,22,06,08,10.80
2015,06,22,06,09,10.80
2015,06,22,06,10,10.80
2015,06,22,06,11,10.80
2015,06,22,06,12,10.90
2015,06,22,06,13,10.90
2015,06,22,06,14,10.90
2015,06,22,06,15,10.90
2015,06,22,06,16,10.90
2015,06,22,06,17,11.00
2015,06,22,06,18,11.00
2015,06,22,06,19,11.00
2015,06,22,06,20,11.10
2015,06,22,06,21,11.10
2015,06,22,06,22,11.10
2015,06,22,06,23,11.10
2015,06,22,06,24,11.10
2015,06,22,06,25,11.10
2015,06,22,06,26,11.10
2015,06,22,06,27,11.10
2015,06,22,06,28,11.10
2015,06,22,06,29,11.10
2015,06,22,06,30,11.10
2015,06,22,06,31,11.10
2015,06,22,06,32,11.10
2015,06,22,06,33,11.10
2015,06,22,06,34,11.20
2015,06,22,06,35,11.20
2015,06,22,06,36,11.20
2015,06,22,06,37,11.30
2015,06,22,06,38,11.30
2015,06,22,06,39,11.30
2015,06,22,06,40,11.30
2015,06,22,06,41,11.30
2015,06,22,06,42,11.40
2015,06,22,06,43,11.40
2015,06,22,06,44,11.40
2015,06,22,06,45,11.40
2015,06,22,06,46,11.40
2015,06,22,06,47,11.50
2015,06,22,06,48,11.50
2015,06,22,06,49,11.60
2015,06,22,06,50,11.60
2015,06,22,06,51,11.60
2015,06,22,06,52,11.60
2015,06,22,06,53,11.60
2015,06,22,06,54,11.60
2015,06,22,06,55,11.70
2015,06,22,06,56,11.70
2015,06,22,06,57,11.70
2015,06,22,06,58,11.80
2015,06,22,06,59,11.80
2015,06,22,07,00,11.80
2015,06,22,07,01,11.80
2015,06,22,07,02,11.90
2015,06,22,07,03,11.90
2015,06,22,07,04,11.90
2015,06,22,07,05,11.90
2015,06,22,07,06,12.00
2015,06,22,07,07,12.00
2015,06,22,07,08,12.00
2015,06,22,07,09,12.00
2015,06,22,07,10,12.10
2015,06,22,07,11,12.10
2015,06,22,07,12,12.10
2015,06,22,07,13,12.10
2015,06,22,07,14,12.10
2015,06,22,07,15,12.10
2015,06,22,07,16,12.10
2015,06,22,07,17,12.10
2015,06,22,07,18,12.10
2015,06,22,07,19,12.10
2015,06,22,07,20,12.20
2015,06,22,07,21,12.20
2015,06,22,07,22,12.20
2015,06,22,07,23,12.30
2015,06,22,07,24,12.30
2015,06,22,07,25,12.30
2015,06,22,07,26,12.30
2015,06,22,07,27,12.30
2015,06,22,07,28,12.30
2015,06,22,07,29,12.30
2015,06,22,07,30,12.40
2015,06,22,07,31,12.40
2015,06,22,07,32,12.40
2015,06,22,07,33,12.40
2015,06,22,07,34,12.40
2015,06,22,07,35,12.40
2015,06,22,07,36,12.40
2015,06,22,07,37,12.40
2015,06,22,07,38,12.40
2015,06,22,07,39,12.40
2015,06,22,07,40,12.40
2015,06,22,07,41,12.50
2015,06,22,07,42,12.50
2015,06,22,07,43,12.40
2015,06,22,07,44,12.50
2015,06,22,07,45,12.50
2015,06,22,07,46,12.50
2015,06,22,07,47,12.50
2015,06,22,07,48,12.60
2015,06,22,07,49,12.60
2015,06,22,07,50,12.60
2015,06,22,07,51,12.60
2015,06,22,07,52,12.70
2015,06,22,07,53,12.70
2015,06,22,07,54,12.70
2015,06,22,07,55,12.70
2015,06,22,07,56,12.80
2015,06,22,07,57,12.80
2015,06,22,07,58,12.80
2015,06,22,07,59,12.80
2015,06,22,08,00,12.90
2015,06,22,08,01,12.90
2015,06,22,08,02,12.90
2015,06,22,08,03,13.00
2015,06,22,08,04,13.00
2015,06,22,08,05,13.10
2015,06,22,08,06,13.10
2015,06,22,08,07,13.10
2015,06,22,08,08,13.20
2015,06,22,08,09,13.20
2015,06,22,08,10,13.20
2015,06,22,08,11,13.20
2015,06,22,08,12,13.20
2015,06,22,08,13,13.30
2015,06,22,08,14,13.30
2015,06,22,08,15,13.30
2015,06,22,08,16,13.30
2015,06,22,08,17,13.40
2015,06,22,08,18,13.40
2015,06,22,08,19,13.50
2015,06,22,08,20,13.50
2015,06,22,08,21,13.60
2015,06,22,08,22,13.60
2015,06,22,08,23,13.60
2015,06,22,08,24,13.70
2015,06,22,08,25,13.70
2015,06,22,08,26,13.70
2015,06,22,08,27,13.80
2015,06,22,08,28,13.80
2015,06,22,08,29,13.90
2015,06,22,08,30,13.90
2015,06,22,08,31,13.90
2015,06,22,08,32,13.90
2015,06,22,08,33,13.90
2015,06,22,08,34,13.90
2015,06,22,08,35,13.80
2015,06,22,08,36,13.80
2015,06,22,08,37,13.80
2015,06,22,08,38,13.80
2015,06,22,08,39,13.80
2015,06,22,08,40,13.90
2015,06,22,08,41,13.80
2015,06,22,08,42,13.90
2015,06,22,08,43,13.90
2015,06,22,08,44,14.00
2015,06,22,08,45,14.10
2015,06,22,08,46,14.20
2015,06,22,08,47,14.20
2015,06,22,08,48,14.30
2015,06,22,08,49,14.30
2015,06,22,08,50,14.30
2015,06,22,08,51,14.30
2015,06,22,08,52,14.30
2015,06,22,08,53,14.30
2015,06,22,08,54,14.30
2015,06,22,08,55,14.30
2015,06,22,08,56,14.30
2015,06,22,08,57,14.30
2015,06,22,08,58,14.30
2015,06,22,08,59,14.30
2015,06,22,09,00,14.30
2015,06,22,09,01,14.30
2015,06,22,09,02,14.30
2015,06,22,09,03,14.20
2015,06,22,09,04,14.30
2015,06,22,09,05,14.30
2015,06,22,09,06,14.30
2015,06,22,09,07,14.30
2015,06,22,09,08,14.40
2015,06,22,09,09,14.50
2015,06,22,09,10,14.60
2015,06,22,09,11,14.60
2015,06,22,09,12,14.70
2015,06,22,09,13,14.70
2015,06,22,09,14,14.80
2015,06,22,09,15,14.80
2015,06,22,09,16,14.90
2015,06,22,09,17,15.00
2015,06,22,09,18,15.00
2015,06,22,09,19,15.00
2015,06,22,09,20,15.00
2015,06,22,09,21,15.00
2015,06,22,09,22,15.00
2015,06,22,09,23,15.00
2015,06,22,09,24,15.00
2015,06,22,09,25,15.00
2015,06,22,09,26,15.00
2015,06,22,09,27,15.00
2015,06,22,09,28,15.00
2015,06,22,09,29,15.00
2015,06,22,09,30,15.00
2015,06,22,09,31,15.00
2015,06,22,09,32,15.20
2015,06,22,09,33,15.30
2015,06,22,09,34,15.40
2015,06,22,09,35,15.50
2015,06,22,09,36,15.50
2015,06,22,09,37,15.50
2015,06,22,09,38,15.60
2015,06,22,09,39,15.60
2015,06,22,09,40,15.60
2015,06,22,09,41,15.60
2015,06,22,09,42,15.60
2015,06,22,09,43,15.70
2015,06,22,09,44,15.70
2015,06,22,09,45,15.70
2015,06,22,09,46,15.70
2015,06,22,09,47,15.70
2015,06,22,09,48,15.70
2015,06,22,09,49,15.80
2015,06,22,09,50,15.90
2015,06,22,09,51,16.00
2015,06,22,09,52,16.10
2015,06,22,09,53,16.10
2015,06,22,09,54,16.20
2015,06,22,09,55,16.30
2015,06,22,09,56,16.30
2015,06,22,09,57,16.40
2015,06,22,09,58,16.50
2015,06,22,09,59,16.60
2015,06,22,10,00,16.70
2015,06,22,10,01,16.70
2015,06,22,10,02,16.70
2015,06,22,10,03,16.70
2015,06,22,10,04,16.70
2015,06,22,10,05,16.70
2015,06,22,10,06,16.70
2015,06,22,10,07,16.60
2015,06,22,10,08,16.60
2015,06,22,10,09,16.50
2015,06,22,10,10,16.50
2015,06,22,10,11,16.50
2015,06,22,10,12,16.50
2015,06,22,10,13,16.60
2015,06,22,10,14,16.60
2015,06,22,10,15,16.60
2015,06,22,10,16,16.60
2015,06,22,10,17,16.70
2015,06,22,10,18,16.70
2015,06,22,10,19,16.70
2015,06,22,10,20,16.80
2015,06,22,10,21,16.80
2015,06,22,10,22,16.80
2015,06,22,10,23,16.90
2015,06,22,10,24,16.90
2015,06,22,10,25,16.80
2015,06,22,10,26,16.80
2015,06,22,10,27,16.90
2015,06,22,10,28,16.90
2015,06,22,10,29,16.90
2015,06,22,10,30,16.90
2015,06,22,10,31,16.90
2015,06,22,10,32,16.90
2015,06,22,10,33,16.80
2015,06,22,10,34,16.80
2015,06,22,10,35,16.70
2015,06,22,10,36,16.70
2015,06,22,10,37,16.70
2015,06,22,10,38,16.80
2015,06,22,10,39,16.80
2015,06,22,10,40,16.90
2015,06,22,10,41,16.90
2015,06,22,10,42,17.00
2015,06,22,10,43,17.00
2015,06,22,10,44,17.10
2015,06,22,10,45,17.20
2015,06,22,10,46,17.20
2015,06,22,10,47,17.20
2015,06,22,10,48,17.20
2015,06,22,10,49,17.20
2015,06,22,10,50,17.30
2015,06,22,10,51,17.30
2015,06,22,10,52,17.40
2015,06,22,10,53,17.40
2015,06,22,10,54,17.40
2015,06,22,10,55,17.40
2015,06,22,10,56,17.40
2015,06,22,10,57,17.40
2015,06,22,10,58,17.30
2015,06,22,10,59,17.40
2015,06,22,11,00,17.50
2015,06,22,11,01,17.50
2015,06,22,11,02,17.60
2015,06,22,11,03,17.60
2015,06,22,11,04,17.60
2015,06,22,11,05,17.60
2015,06,22,11,06,17.60
2015,06,22,11,07,17.60
2015,06,22,11,08,17.70
2015,06,22,11,09,17.80
2015,06,22,11,10,17.90
2015,06,22,11,11,17.90
2015,06,22,11,12,18.00
2015,06,22,11,13,18.00
2015,06,22,11,14,18.20
2015,06,22,11,15,18.20
2015,06,22,11,16,18.20
2015,06,22,11,17,18.20
2015,06,22,11,18,18.30
2015,06,22,11,19,18.30
2015,06,22,11,20,18.30
2015,06,22,11,21,18.30
2015,06,22,11,22,18.30
2015,06,22,11,23,18.30
2015,06,22,11,24,18.30
2015,06,22,11,25,18.30
2015,06,22,11,26,18.40
2015,06,22,11,27,18.50
2015,06,22,11,28,18.60
2015,06,22,11,29,18.60
2015,06,22,11,30,18.60
2015,06,22,11,31,18.60
2015,06,22,11,32,18.60
2015,06,22,11,33,18.70
2015,06,22,11,34,18.70
2015,06,22,11,35,18.70
2015,06,22,11,36,18.80
2015,06,22,11,37,18.90
2015,06,22,11,38,18.90
2015,06,22,11,39,18.90
2015,06,22,11,40,19.00
2015,06,22,11,41,19.00
2015,06,22,11,42,19.10
2015,06,22,11,43,19.20
2015,06,22,11,44,19.30
2015,06,22,11,45,19.50
2015,06,22,11,46,19.60
2015,06,22,11,47,19.70
2015,06,22,11,48,19.80
2015,06,22,11,49,19.80
2015,06,22,11,50,19.70
2015,06,22,11,51,19.70
2015,06,22,11,52,19.70
2015,06,22,11,53,19.70
2015,06,22,11,54,19.80
2015,06,22,11,55,19.80
2015,06,22,11,56,19.90
2015,06,22,11,57,19.90
2015,06,22,11,58,19.90
2015,06,22,11,59,19.90
2015,06,22,12,00,19.90
2015,06,22,12,01,19.90
2015,06,22,12,02,19.90
2015,06,22,12,03,20.00
2015,06,22,12,04,20.00
2015,06,22,12,05,20.00
2015,06,22,12,06,19.90
2015,06,22,12,07,19.90
2015,06,22,12,08,19.90
2015,06,22,12,09,20.00
2015,06,22,12,10,20.10
2015,06,22,12,11,20.20
2015,06,22,12,12,20.30
2015,06,22,12,13,20.30
2015,06,22,12,14,20.40
2015,06,22,12,15,20.50
2015,06,22,12,16,20.50
2015,06,22,12,17,20.50
2015,06,22,12,18,20.50
2015,06,22,12,19,20.60
2015,06,22,12,20,20.60
2015,06,22,12,21,20.60
2015,06,22,12,22,20.70
2015,06,22,12,23,20.80
2015,06,22,12,24,20.80
2015,06,22,12,25,20.80
2015,06,22,12,26,20.80
2015,06,22,12,27,20.80
2015,06,22,12,28,20.90
2015,06,22,12,29,21.00
2015,06,22,12,30,21.10
2015,06,22,12,31,21.10
2015,06,22,12,32,21.20
2015,06,22,12,33,21.20
2015,06,22,12,34,21.30
2015,06,22,12,35,21.30
2015,06,22,12,36,21.40
2015,06,22,12,37,21.40
2015,06,22,12,38,21.30
2015,06,22,12,39,21.20
2015,06,22,12,40,21.20
2015,06,22,12,41,21.20
2015,06,22,12,42,21.30
2015,06,22,12,43,21.30
2015,06,22,12,44,21.40
2015,06,22,12,45,21.50
2015,06,22,12,46,21.60
2015,06,22,12,47,21.60
2015,06,22,12,48,21.70
2015,06,22,12,49,21.70
2015,06,22,12,50,21.70
2015,06,22,12,51,21.70
2015,06,22,12,52,21.70
2015,06,22,12,53,21.80
2015,06,22,12,54,21.80
2015,06,22,12,55,21.70
2015,06,22,12,56,21.70
2015,06,22,12,57,21.70
2015,06,22,12,58,21.70
2015,06,22,12,59,21.80
2015,06,22,13,00,21.80
2015,06,22,13,01,21.80
2015,06,22,13,02,21.90
2015,06,22,13,03,21.90
2015,06,22,13,04,21.80
2015,06,22,13,05,21.80
2015,06,22,13,06,21.80
2015,06,22,13,07,21.80
2015,06,22,13,08,21.90
2015,06,22,13,09,21.90
2015,06,22,13,10,21.90
2015,06,22,13,11,21.90
2015,06,22,13,12,21.90
2015,06,22,13,13,21.80
2015,06,22,13,14,21.80
2015,06,22,13,15,21.80
2015,06,22,13,16,21.80
2015,06,22,13,17,21.90
2015,06,22,13,18,21.90
2015,06,22,13,19,21.90
2015,06,22,13,20,22.00
2015,06,22,13,21,22.10
2015,06,22,13,22,22.10
2015,06,22,13,23,22.10
2015,06,22,13,24,22.00
2015,06,22,13,25,22.00
2015,06,22,13,26,22.00
2015,06,22,13,27,22.00
2015,06,22,13,28,22.00
2015,06,22,13,29,22.10
2015,06,22,13,30,22.20
2015,06,22,13,31,22.20
2015,06,22,13,32,22.30
2015,06,22,13,33,22.30
2015,06,22,13,34,22.40
2015,06,22,13,35,22.40
2015,06,22,13,36,22.40
2015,06,22,13,37,22.40
2015,06,22,13,38,22.40
2015,06,22,13,39,22.40
2015,06,22,13,40,22.40
2015,06,22,13,41,22.40
2015,06,22,13,42,22.50
2015,06,22,13,43,22.50
2015,06,22,13,44,22.60
2015,06,22,13,45,22.80
2015,06,22,13,46,22.80
2015,06,22,13,47,22.90
2015,06,22,13,48,23.00
2015,06,22,13,49,23.10
2015,06,22,13,50,23.20
2015,06,22,13,51,23.30
2015,06,22,13,52,23.30
2015,06,22,13,53,23.30
2015,06,22,13,54,23.30
2015,06,22,13,55,23.20
2015,06,22,13,56,23.30
2015,06,22,13,57,23.30
2015,06,22,13,58,23.40
2015,06,22,13,59,23.40
2015,06,22,14,00,23.50
2015,06,22,14,01,23.50
2015,06,22,14,02,23.60
2015,06,22,14,03,23.70
2015,06,22,14,04,23.70
2015,06,22,14,05,23.70
2015,06,22,14,06,23.60
2015,06,22,14,07,23.60
2015,06,22,14,08,23.60
2015,06,22,14,09,23.70
2015,06,22,14,10,23.70
2015,06,22,14,11,23.80
2015,06,22,14,12,23.90
2015,06,22,14,13,24.00
2015,06,22,14,14,24.10
2015,06,22,14,15,24.20
2015,06,22,14,16,24.30
2015,06,22,14,17,24.40
2015,06,22,14,18,24.50
2015,06,22,14,19,24.60
2015,06,22,14,20,24.70
2015,06,22,14,21,24.70
2015,06,22,14,22,24.80
2015,06,22,14,23,24.80
2015,06,22,14,24,24.90
2015,06,22,14,25,25.00
2015,06,22,14,26,25.10
2015,06,22,14,27,25.20
2015,06,22,14,28,25.20
2015,06,22,14,29,25.10
2015,06,22,14,30,25.10
2015,06,22,14,31,25.00
2015,06,22,14,32,24.90
2015,06,22,14,33,24.90
2015,06,22,14,34,24.80
2015,06,22,14,35,24.80
2015,06,22,14,36,24.80
2015,06,22,14,37,24.90
2015,06,22,14,38,24.90
2015,06,22,14,39,25.00
2015,06,22,14,40,25.10
2015,06,22,14,41,25.10
2015,06,22,14,42,25.20
2015,06,22,14,43,25.30
2015,06,22,14,44,25.30
2015,06,22,14,45,25.30
2015,06,22,14,46,25.30
2015,06,22,14,47,25.30
2015,06,22,14,48,25.20
2015,06,22,14,49,25.20
2015,06,22,14,50,25.10
2015,06,22,14,51,25.00
2015,06,22,14,52,24.80
2015,06,22,14,53,24.80
2015,06,22,14,54,24.70
2015,06,22,14,55,24.70
2015,06,22,14,56,24.60
2015,06,22,14,57,24.50
2015,06,22,14,58,24.40
2015,06,22,14,59,24.40
2015,06,22,15,00,24.40
2015,06,22,15,01,24.40
2015,06,22,15,02,24.30
2015,06,22,15,03,24.40
2015,06,22,15,04,24.50
2015,06,22,15,05,24.50
2015,06,22,15,06,24.60
2015,06,22,15,07,24.70
2015,06,22,15,08,24.80
2015,06,22,15,09,24.80
2015,06,22,15,10,24.80
2015,06,22,15,11,24.80
2015,06,22,15,12,24.80
2015,06,22,15,13,24.80
2015,06,22,15,14,24.80
2015,06,22,15,15,24.70
2015,06,22,15,16,24.60
2015,06,22,15,17,24.50
2015,06,22,15,18,24.40
2015,06,22,15,19,24.30
2015,06,22,15,20,24.30
2015,06,22,15,21,24.30
2015,06,22,15,22,24.30
2015,06,22,15,23,24.20
2015,06,22,15,24,24.20
2015,06,22,15,25,24.10
2015,06,22,15,26,24.10
2015,06,22,15,27,24.10
2015,06,22,15,28,24.20
2015,06,22,15,29,24.20
2015,06,22,15,30,24.30
2015,06,22,15,31,24.40
2015,06,22,15,32,24.50
2015,06,22,15,33,24.50
2015,06,22,15,34,24.60
2015,06,22,15,35,24.50
2015,06,22,15,36,24.40
2015,06,22,15,37,24.40
2015,06,22,15,38,24.40
2015,06,22,15,39,24.50
2015,06,22,15,40,24.70
2015,06,22,15,41,24.70
2015,06,22,15,42,24.80
2015,06,22,15,43,24.80
2015,06,22,15,44,24.90
2015,06,22,15,45,24.90
2015,06,22,15,46,25.00
2015,06,22,15,47,25.00
2015,06,22,15,48,25.10
2015,06,22,15,49,25.20
2015,06,22,15,50,25.20
2015,06,22,15,51,25.10
2015,06,22,15,52,24.90
2015,06,22,15,53,24.70
2015,06,22,15,54,24.50
2015,06,22,15,55,24.40
2015,06,22,15,56,24.30
2015,06,22,15,57,24.10
2015,06,22,15,58,24.10
2015,06,22,15,59,24.00
2015,06,22,16,00,24.10
2015,06,22,16,01,24.10
2015,06,22,16,02,24.10
2015,06,22,16,03,24.10
2015,06,22,16,04,24.20
2015,06,22,16,05,24.10
2015,06,22,16,06,24.10
2015,06,22,16,07,24.10
2015,06,22,16,08,24.10
2015,06,22,16,09,24.10
2015,06,22,16,10,24.10
2015,06,22,16,11,24.20
2015,06,22,16,12,24.20
2015,06,22,16,13,24.20
2015,06,22,16,14,24.30
2015,06,22,16,15,24.30
2015,06,22,16,16,24.30
2015,06,22,16,17,24.30
2015,06,22,16,18,24.40
2015,06,22,16,19,24.40
2015,06,22,16,20,24.50
2015,06,22,16,21,24.50
2015,06,22,16,22,24.60
2015,06,22,16,23,24.50
2015,06,22,16,24,24.50
2015,06,22,16,25,24.60
2015,06,22,16,26,24.60
2015,06,22,16,27,24.70
2015,06,22,16,28,24.60
2015,06,22,16,29,24.60
2015,06,22,16,30,24.60
2015,06,22,16,31,24.60
2015,06,22,16,32,24.50
2015,06,22,16,33,24.50
2015,06,22,16,34,24.40
2015,06,22,16,35,24.30
2015,06,22,16,36,24.20
2015,06,22,16,37,24.10
2015,06,22,16,38,24.10
2015,06,22,16,39,24.00
2015,06,22,16,40,24.00
2015,06,22,16,41,23.90
2015,06,22,16,42,23.80
2015,06,22,16,43,23.70
2015,06,22,16,44,23.70
2015,06,22,16,45,23.60
2015,06,22,16,46,23.60
2015,06,22,16,47,23.50
2015,06,22,16,48,23.50
2015,06,22,16,49,23.50
2015,06,22,16,50,23.60
2015,06,22,16,51,23.60
2015,06,22,16,52,23.60
2015,06,22,16,53,23.60
2015,06,22,16,54,23.60
2015,06,22,16,55,23.60
2015,06,22,16,56,23.60
2015,06,22,16,57,23.60
2015,06,22,16,58,23.60
2015,06,22,16,59,23.60
2015,06,22,17,00,23.60
2015,06,22,17,01,23.60
2015,06,22,17,02,23.70
2015,06,22,17,03,23.70
2015,06,22,17,04,23.70
2015,06,22,17,05,23.70
2015,06,22,17,06,23.80
2015,06,22,17,07,23.80
2015,06,22,17,08,23.90
2015,06,22,17,09,23.90
2015,06,22,17,10,23.90
2015,06,22,17,11,24.00
2015,06,22,17,12,24.00
2015,06,22,17,13,24.10
2015,06,22,17,14,24.10
2015,06,22,17,15,24.10
2015,06,22,17,16,24.10
2015,06,22,17,17,24.10
2015,06,22,17,18,24.10
2015,06,22,17,19,24.10